Flag for Germany Weather past 2 weeks in Dachau, Bavaria, Germany

46 °F

Light rain. Partly cloudy.

Feels Like: 36 °F
Forecast: 45 / 49 °F
Wind: 35 mph from West

Location: Munich / Franz Josef Strauss Airport

Current Time: Nov 29, 2015 at 11:16:09 PM

Latest Report: Nov 29, 2015 at 10:20 PM

Visibility: N/A

Pressure: 30.09 "Hg (28.31 "Hg at 502m altitude)

Humidity: 76%

Dew point: 39 °F

Location of DachauLocation

Historic Weather in Dachau — Graph


Dachau temperature yesterday

Maximum temperature yesterday: 37 °F (at 9:20 PM)
Minimum temperature yesterday: 30 °F (at 12:50 AM)
Average temperature yesterday: 34 °F

Past Weeks' High & Low Weather Summary

High66 °F (Nov 16, 12:20 PM)100% (Nov 17, 1:20 AM)30.30 "Hg (Nov 17, 1:20 AM)
Low21 °F (Nov 24, 3:20 AM)43% (Nov 16, 12:50 PM)29.42 "Hg (Nov 21, 1:20 PM)
Average42 °F81%29.95 "Hg
* Reported Nov 14 9:20 PM — Nov 29 9:50 PM, Dachau, Weather by CustomWeather, © 2015

Note: Actual official high and low records may vary slightly from our data, if they occured in-between our weather recording intervals... More about our weather records


Dachau weather history for previous 24 hours

Time TempWeatherWind HumidityBarometerVisibility
9:50 PM
Sun, Nov 29
46 °FLight rain. Partly cloudy.28 mph76%30.09 "HgN/A
9:20 PM46 °FClear.29 mph76%30.09 "Hg10 mi
8:50 PM46 °FClear.30 mph76%30.09 "Hg10 mi
8:20 PM46 °FPartly cloudy.33 mph76%30.09 "HgN/A
7:50 PM46 °FPartly cloudy.31 mph76%30.09 "HgN/A
7:20 PM46 °FPartly cloudy.30 mph76%30.09 "HgN/A
6:50 PM45 °FClear.28 mph81%30.09 "Hg10 mi
6:20 PM45 °FPartly cloudy.28 mph81%30.09 "HgN/A
5:50 PM45 °FPartly cloudy.28 mph76%30.09 "HgN/A
5:20 PM45 °FLight rain. Partly cloudy.26 mph76%30.09 "HgN/A
4:50 PM43 °FLight rain. Partly cloudy.28 mph81%30.09 "HgN/A
4:20 PM43 °FPartly sunny.28 mph81%30.09 "HgN/A
3:50 PM43 °FBroken clouds.29 mph81%30.09 "HgN/A
3:20 PM43 °FLight rain. Partly sunny.29 mph87%30.09 "HgN/A
2:50 PM43 °FLight rain. Partly sunny.28 mph87%30.09 "HgN/A
2:20 PM43 °FLight rain. Partly sunny.28 mph81%30.07 "HgN/A
1:50 PM43 °FLight rain. More clouds than sun.25 mph87%30.07 "HgN/A
1:20 PM43 °FLight rain. More clouds than sun.29 mph87%30.07 "HgN/A
12:50 PM43 °FLight rain. Mostly cloudy.26 mph81%30.07 "HgN/A
12:20 PM41 °FLight rain. Partly sunny.29 mph87%30.07 "HgN/A
11:50 AM41 °FLight rain. Partly sunny.26 mph87%30.09 "HgN/A
11:20 AM39 °FLight rain. Partly sunny.25 mph93%30.09 "HgN/A
10:50 AM39 °FLight rain. Partly sunny.24 mph87%30.09 "HgN/A
10:20 AM41 °FLight rain. Broken clouds.33 mph76%30.09 "HgN/A
9:50 AM41 °FLight rain. Partly sunny.29 mph70%30.09 "HgN/A
9:20 AM41 °FLight rain. Partly sunny.21 mph61%30.09 "HgN/A
7:50 AM39 °FBroken clouds.20 mph65%30.09 "HgN/A
7:20 AM37 °FPassing clouds.18 mph70%30.09 "HgN/A
6:50 AM37 °FPassing clouds.16 mph70%30.09 "HgN/A
6:20 AM37 °FClear.17 mph70%30.09 "Hg10 mi
5:20 AM36 °FClear.16 mph75%30.12 "Hg10 mi
4:50 AM36 °FClear.16 mph75%30.12 "Hg10 mi
4:20 AM36 °FClear.16 mph75%30.09 "Hg10 mi
3:50 AM34 °FClear.10 mph81%30.12 "Hg10 mi
3:20 AM34 °FClear.10 mph81%30.12 "Hg10 mi
2:50 AM34 °FClear.12 mph81%30.12 "Hg10 mi
2:20 AM34 °FClear.13 mph81%30.15 "Hg10 mi
1:50 AM34 °FClear.13 mph81%30.15 "Hg10 mi
1:20 AM32 °FClear.12 mph87%30.15 "Hg10 mi
12:50 AM34 °FClear.13 mph81%30.15 "Hg10 mi
12:20 AM34 °FClear.16 mph87%30.15 "Hg10 mi
11:50 PM
Sat, Nov 28
34 °FClear.13 mph87%30.15 "Hg10 mi
Weather by CustomWeather, © 2015

See weather overviewHow to use our weather pages